Time,TemperatureF,DewpointF,PressureIn,WindDirection,WindDirectionDegrees,WindSpeedMPH,WindSpeedGustMPH,Humidity,HourlyPrecipIn,Conditions,Clouds,dailyrainin,SoftwareType,DateUTC
2013-07-15 00:02:00,55.9,50.2,30.13,South,184,0.0,0.0,81,0.00,CLR,,0.00,WeatherDisplay:10.37,2013-07-14 14:02:00,
2013-07-15 00:07:00,55.9,50.2,30.13,South,190,0.0,0.0,81,0.00,CLR,,0.00,WeatherDisplay:10.37,2013-07-14 14:07:00,
2013-07-15 00:12:00,55.9,50.2,30.12,South,189,0.0,0.0,81,0.00,CLR,,0.00,WeatherDisplay:10.37,2013-07-14 14:12:00,
2013-07-15 00:17:00,55.9,50.2,30.12,ESE,122,0.0,0.0,81,0.00,CLR,,0.00,WeatherDisplay:10.37,2013-07-14 14:17:00,
2013-07-15 00:22:00,55.9,50.2,30.12,ENE,73,0.0,0.0,81,0.00,CLR,,0.00,WeatherDisplay:10.37,2013-07-14 14:22:00,
2013-07-15 00:27:00,55.9,50.2,30.12,NE,47,0.0,0.0,81,0.00,CLR,,0.00,WeatherDisplay:10.37,2013-07-14 14:27:00,
2013-07-15 00:32:00,55.9,50.5,30.12,NE,34,0.0,0.0,82,0.00,CLR,,0.00,WeatherDisplay:10.37,2013-07-14 14:32:00,
2013-07-15 00:37:00,56.0,50.2,30.12,NE,38,0.0,0.0,81,0.00,CLR,,0.00,WeatherDisplay:10.37,2013-07-14 14:37:00,
2013-07-15 00:42:00,56.1,50.4,30.12,NNE,17,0.0,0.0,81,0.00,CLR,,0.00,WeatherDisplay:10.37,2013-07-14 14:42:00,
2013-07-15 00:47:00,56.0,50.3,30.12,North,358,0.0,0.0,81,0.00,CLR,,0.00,WeatherDisplay:10.37,2013-07-14 14:47:00,
2013-07-15 00:52:00,56.1,50.4,30.12,North,357,0.0,0.0,81,0.00,CLR,,0.00,WeatherDisplay:10.37,2013-07-14 14:52:00,
2013-07-15 00:57:00,56.1,50.4,30.12,North,357,0.0,0.0,81,0.00,CLR,,0.00,WeatherDisplay:10.37,2013-07-14 14:57:00,
2013-07-15 01:02:00,55.9,50.2,30.12,NNE,22,0.0,0.0,81,0.00,CLR,,0.00,WeatherDisplay:10.37,2013-07-14 15:02:00,
2013-07-15 01:07:00,55.9,50.2,30.11,East,100,0.0,0.0,81,0.00,CLR,,0.00,WeatherDisplay:10.37,2013-07-14 15:07:00,
2013-07-15 01:12:00,55.9,50.2,30.11,SSE,160,0.0,0.0,81,0.00,CLR,,0.00,WeatherDisplay:10.37,2013-07-14 15:12:00,
2013-07-15 01:17:00,55.9,50.2,30.11,South,180,0.0,0.0,81,0.00,CLR,,0.00,WeatherDisplay:10.37,2013-07-14 15:17:00,
2013-07-15 01:22:00,55.9,50.5,30.11,SSW,197,0.0,0.0,82,0.00,CLR,,0.00,WeatherDisplay:10.37,2013-07-14 15:22:00,
2013-07-15 01:27:00,55.9,50.5,30.11,SSW,213,0.0,0.0,82,0.00,CLR,,0.00,WeatherDisplay:10.37,2013-07-14 15:27:00,
2013-07-15 01:32:00,55.9,50.5,30.11,SSW,211,0.0,0.0,82,0.00,CLR,,0.00,WeatherDisplay:10.37,2013-07-14 15:32:00,
2013-07-15 01:37:00,55.9,50.4,30.11,SSW,208,0.0,0.0,82,0.00,CLR,,0.00,WeatherDisplay:10.37,2013-07-14 15:37:00,
2013-07-15 01:42:00,55.8,50.0,30.11,SW,226,0.0,0.0,81,0.00,CLR,,0.00,WeatherDisplay:10.37,2013-07-14 15:42:00,
2013-07-15 01:47:00,55.8,50.0,30.11,West,260,0.0,0.0,81,0.00,CLR,,0.00,WeatherDisplay:10.37,2013-07-14 15:47:00,
2013-07-15 01:52:00,55.8,50.3,30.11,West,270,0.0,0.0,82,0.00,CLR,,0.00,WeatherDisplay:10.37,2013-07-14 15:52:00,
2013-07-15 01:57:00,55.9,50.5,30.11,West,263,0.0,0.0,82,0.00,CLR,,0.00,WeatherDisplay:10.37,2013-07-14 15:57:00,
2013-07-15 02:02:00,55.9,50.5,30.11,WSW,240,0.0,0.0,82,0.00,CLR,,0.00,WeatherDisplay:10.37,2013-07-14 16:02:00,
2013-07-15 02:07:00,55.9,50.5,30.11,SW,230,0.0,0.0,82,0.00,CLR,,0.00,WeatherDisplay:10.37,2013-07-14 16:07:00,
2013-07-15 02:12:00,55.9,50.5,30.10,SW,231,0.0,0.0,82,0.00,CLR,,0.00,WeatherDisplay:10.37,2013-07-14 16:12:00,
2013-07-15 02:17:00,55.8,50.4,30.10,SW,219,0.0,0.0,82,0.00,CLR,,0.00,WeatherDisplay:10.37,2013-07-14 16:17:00,
2013-07-15 02:22:00,55.8,50.3,30.10,SSW,203,0.0,0.0,82,0.00,CLR,,0.00,WeatherDisplay:10.37,2013-07-14 16:22:00,
2013-07-15 02:27:00,55.8,50.3,30.10,SSW,205,0.0,0.0,82,0.00,CLR,,0.00,WeatherDisplay:10.37,2013-07-14 16:27:00,
2013-07-15 02:32:00,55.8,50.3,30.10,SSW,203,0.0,0.0,82,0.00,CLR,,0.00,WeatherDisplay:10.37,2013-07-14 16:32:00,
2013-07-15 02:37:00,55.8,50.3,30.10,South,176,0.0,0.0,82,0.00,CLR,,0.00,WeatherDisplay:10.37,2013-07-14 16:37:00,
2013-07-15 02:42:00,55.8,50.3,30.09,SE,139,0.0,0.0,82,0.00,CLR,,0.00,WeatherDisplay:10.37,2013-07-14 16:42:00,
2013-07-15 02:47:00,55.8,50.3,30.10,SSE,168,0.0,0.0,82,0.00,CLR,,0.00,WeatherDisplay:10.37,2013-07-14 16:47:00,
2013-07-15 02:52:00,55.8,50.3,30.10,SSW,198,0.0,0.0,82,0.00,CLR,,0.00,WeatherDisplay:10.37,2013-07-14 16:52:00,
2013-07-15 02:57:00,55.8,50.4,30.10,SSW,204,0.0,0.0,82,0.00,CLR,,0.00,WeatherDisplay:10.37,2013-07-14 16:57:00,
2013-07-15 03:02:00,55.9,50.8,30.10,WSW,247,0.0,0.0,83,0.00,CLR,,0.00,WeatherDisplay:10.37,2013-07-14 17:02:00,
2013-07-15 03:07:00,55.8,50.7,30.10,NNW,332,0.0,0.0,83,0.00,CLR,,0.00,WeatherDisplay:10.37,2013-07-14 17:07:00,
2013-07-15 03:12:00,55.9,50.9,30.10,NE,39,0.0,0.0,83,0.00,CLR,,0.00,WeatherDisplay:10.37,2013-07-14 17:12:00,
2013-07-15 03:17:00,55.9,50.9,30.10,NE,45,0.0,0.0,83,0.00,CLR,,0.00,WeatherDisplay:10.37,2013-07-14 17:17:00,
2013-07-15 03:22:00,55.9,50.9,30.10,ENE,61,0.0,0.0,83,0.00,CLR,,0.00,WeatherDisplay:10.37,2013-07-14 17:22:00,
2013-07-15 03:27:00,55.9,50.9,30.11,East,84,0.0,0.0,83,0.00,CLR,,0.00,WeatherDisplay:10.37,2013-07-14 17:27:00,
2013-07-15 03:32:00,55.9,50.9,30.11,East,90,0.0,0.0,83,0.00,CLR,,0.00,WeatherDisplay:10.37,2013-07-14 17:32:00,
2013-07-15 03:37:00,55.9,50.9,30.11,East,88,0.0,0.0,83,0.00,CLR,,0.00,WeatherDisplay:10.37,2013-07-14 17:37:00,
2013-07-15 03:42:00,55.8,50.7,30.10,East,88,0.0,0.0,83,0.00,CLR,,0.00,WeatherDisplay:10.37,2013-07-14 17:42:00,
2013-07-15 03:47:00,55.8,50.7,30.11,East,89,0.0,0.0,83,0.00,CLR,,0.00,WeatherDisplay:10.37,2013-07-14 17:47:00,
2013-07-15 03:52:00,55.8,50.7,30.10,East,89,0.0,0.0,83,0.00,CLR,,0.00,WeatherDisplay:10.37,2013-07-14 17:52:00,
2013-07-15 03:57:00,55.8,50.7,30.10,East,98,0.0,0.0,83,0.00,CLR,,0.00,WeatherDisplay:10.37,2013-07-14 17:57:00,
2013-07-15 04:02:00,55.8,50.7,30.11,East,98,0.0,0.0,83,0.00,CLR,,0.00,WeatherDisplay:10.37,2013-07-14 18:02:00,
2013-07-15 04:07:00,55.6,50.8,30.10,West,278,0.0,0.0,84,0.00,CLR,,0.00,WeatherDisplay:10.37,2013-07-14 18:07:00,
2013-07-15 04:12:00,55.8,51.0,30.10,WSW,258,0.0,0.0,84,0.00,CLR,,0.00,WeatherDisplay:10.37,2013-07-14 18:12:00,
2013-07-15 04:17:00,55.8,51.0,30.10,West,275,0.0,0.0,84,0.00,CLR,,0.00,WeatherDisplay:10.37,2013-07-14 18:17:00,
2013-07-15 04:22:00,55.6,50.8,30.10,WNW,303,0.0,0.0,84,0.00,CLR,,0.00,WeatherDisplay:10.37,2013-07-14 18:22:00,
2013-07-15 04:27:00,55.6,50.8,30.10,WNW,293,0.0,0.0,84,0.00,CLR,,0.00,WeatherDisplay:10.37,2013-07-14 18:27:00,
2013-07-15 04:32:00,55.6,50.8,30.10,West,275,0.0,0.0,84,0.00,CLR,,0.00,WeatherDisplay:10.37,2013-07-14 18:32:00,
2013-07-15 04:37:00,55.6,50.8,30.11,West,271,0.0,0.0,84,0.00,CLR,,0.00,WeatherDisplay:10.37,2013-07-14 18:37:00,
2013-07-15 04:42:00,55.6,50.8,30.11,WSW,253,0.0,0.0,84,0.00,CLR,,0.00,WeatherDisplay:10.37,2013-07-14 18:42:00,
2013-07-15 04:52:00,55.5,50.8,30.11,SW,231,0.0,0.0,84,0.00,CLR,,0.00,WeatherDisplay:10.37,2013-07-14 18:52:00,
2013-07-15 04:57:00,55.6,50.8,30.11,SW,219,0.0,0.0,84,0.00,CLR,,0.00,WeatherDisplay:10.37,2013-07-14 18:57:00,
2013-07-15 05:02:00,55.6,50.8,30.11,SSW,207,0.0,0.0,84,0.00,CLR,,0.00,WeatherDisplay:10.37,2013-07-14 19:02:00,
2013-07-15 05:07:00,55.4,50.6,30.11,SSW,203,0.0,0.0,84,0.00,CLR,,0.00,WeatherDisplay:10.37,2013-07-14 19:07:00,
2013-07-15 05:12:00,55.4,50.6,30.11,SSW,206,0.0,0.0,84,0.00,CLR,,0.00,WeatherDisplay:10.37,2013-07-14 19:12:00,
2013-07-15 05:17:00,55.4,50.6,30.11,SSW,207,0.0,0.0,84,0.00,CLR,,0.00,WeatherDisplay:10.37,2013-07-14 19:17:00,
2013-07-15 05:22:00,55.4,50.6,30.11,SSW,202,0.0,0.0,84,0.00,CLR,,0.00,WeatherDisplay:10.37,2013-07-14 19:22:00,
2013-07-15 05:27:00,55.3,50.6,30.11,SSW,205,0.0,0.0,84,0.00,CLR,,0.00,WeatherDisplay:10.37,2013-07-14 19:27:00,
2013-07-15 05:32:00,55.4,50.6,30.11,SSW,205,0.0,0.0,84,0.00,CLR,,0.00,WeatherDisplay:10.37,2013-07-14 19:32:00,
2013-07-15 05:37:00,55.3,50.9,30.12,WSW,250,0.0,0.0,85,0.00,CLR,,0.00,WeatherDisplay:10.37,2013-07-14 19:37:00,
2013-07-15 05:42:00,55.3,50.9,30.12,NW,304,0.0,0.0,85,0.00,CLR,,0.00,WeatherDisplay:10.37,2013-07-14 19:42:00,
2013-07-15 05:47:00,55.4,51.0,30.11,NW,315,0.0,0.0,85,0.00,CLR,,0.00,WeatherDisplay:10.37,2013-07-14 19:47:00,
2013-07-15 05:52:00,55.4,51.0,30.11,WNW,302,0.0,0.0,85,0.00,CLR,,0.00,WeatherDisplay:10.37,2013-07-14 19:52:00,
2013-07-15 05:57:00,55.4,51.0,30.12,NW,313,0.0,0.0,85,0.00,CLR,,0.00,WeatherDisplay:10.37,2013-07-14 19:57:00,
2013-07-15 06:02:00,55.3,50.9,30.12,NW,306,0.0,0.0,85,0.00,CLR,,0.00,WeatherDisplay:10.37,2013-07-14 20:02:00,
2013-07-15 06:07:00,55.2,50.8,30.12,WSW,241,0.0,0.0,85,0.00,CLR,,0.00,WeatherDisplay:10.37,2013-07-14 20:07:00,
2013-07-15 06:12:00,55.2,50.8,30.12,SW,225,0.0,0.0,85,0.00,CLR,,0.00,WeatherDisplay:10.37,2013-07-14 20:12:00,
2013-07-15 06:17:00,55.2,50.8,30.12,SW,227,0.0,0.0,85,0.00,CLR,,0.00,WeatherDisplay:10.37,2013-07-14 20:17:00,
2013-07-15 06:22:00,55.2,50.8,30.12,SW,227,0.0,0.0,85,0.00,CLR,,0.00,WeatherDisplay:10.37,2013-07-14 20:22:00,
2013-07-15 06:27:00,55.2,50.8,30.13,SW,214,0.0,0.0,85,0.00,CLR,,0.00,WeatherDisplay:10.37,2013-07-14 20:27:00,
2013-07-15 06:32:00,55.4,51.0,30.13,SSW,205,0.0,0.0,85,0.00,CLR,,0.00,WeatherDisplay:10.37,2013-07-14 20:32:00,
2013-07-15 06:37:00,55.2,50.8,30.13,SSW,211,0.0,0.0,85,0.00,CLR,,0.00,WeatherDisplay:10.37,2013-07-14 20:37:00,
2013-07-15 06:42:00,55.2,50.8,30.13,SW,220,0.0,0.0,85,0.00,CLR,,0.00,WeatherDisplay:10.37,2013-07-14 20:42:00,
2013-07-15 06:47:00,55.2,50.8,30.13,SW,221,0.0,0.0,85,0.00,CLR,,0.00,WeatherDisplay:10.37,2013-07-14 20:47:00,
2013-07-15 06:52:00,55.4,50.9,30.13,SSW,210,0.0,0.0,85,0.00,CLR,,0.00,WeatherDisplay:10.37,2013-07-14 20:52:00,
2013-07-15 06:57:00,55.4,51.0,30.13,SSW,203,0.0,0.0,85,0.00,CLR,,0.00,WeatherDisplay:10.37,2013-07-14 20:57:00,
2013-07-15 07:02:00,55.4,51.0,30.13,SSW,202,0.0,0.0,85,0.00,CLR,,0.00,WeatherDisplay:10.37,2013-07-14 21:02:00,
2013-07-15 07:07:00,55.4,51.0,30.13,SSW,204,0.0,0.0,85,0.00,CLR,,0.00,WeatherDisplay:10.37,2013-07-14 21:07:00,
2013-07-15 07:12:00,55.4,51.0,30.13,SSW,204,0.0,0.0,85,0.00,CLR,,0.00,WeatherDisplay:10.37,2013-07-14 21:12:00,
2013-07-15 07:17:00,55.4,51.0,30.13,South,188,0.0,0.0,85,0.00,CLR,,0.00,WeatherDisplay:10.37,2013-07-14 21:17:00,
2013-07-15 07:22:00,55.5,51.0,30.13,South,177,0.0,0.0,85,0.00,CLR,,0.00,WeatherDisplay:10.37,2013-07-14 21:22:00,
2013-07-15 07:27:00,55.4,50.9,30.14,SSE,159,0.0,0.0,85,0.00,CLR,,0.00,WeatherDisplay:10.37,2013-07-14 21:27:00,
2013-07-15 07:32:00,55.4,51.0,30.14,NE,52,0.0,2.0,85,0.00,CLR,,0.00,WeatherDisplay:10.37,2013-07-14 21:32:00,
2013-07-15 07:37:00,55.4,51.0,30.14,NNE,22,0.0,3.0,85,0.00,CLR,,0.00,WeatherDisplay:10.37,2013-07-14 21:37:00,
2013-07-15 07:42:00,55.2,50.8,30.14,NNE,32,0.0,2.0,85,0.00,CLR,,0.00,WeatherDisplay:10.37,2013-07-14 21:42:00,
2013-07-15 07:47:00,55.3,50.9,30.14,NNE,23,0.0,0.0,85,0.00,CLR,,0.00,WeatherDisplay:10.37,2013-07-14 21:47:00,
2013-07-15 07:52:00,55.3,50.9,30.14,NNE,19,0.0,0.0,85,0.00,CLR,,0.00,WeatherDisplay:10.37,2013-07-14 21:52:00,
2013-07-15 07:57:00,55.5,51.1,30.14,NNE,27,0.0,0.0,85,0.00,CLR,,0.00,WeatherDisplay:10.37,2013-07-14 21:57:00,
2013-07-15 08:02:00,55.6,51.1,30.14,NE,38,0.0,0.0,85,0.00,CLR,,0.00,WeatherDisplay:10.37,2013-07-14 22:02:00,
2013-07-15 08:07:00,55.5,51.0,30.14,NE,47,0.0,0.0,85,0.00,CLR,,0.00,WeatherDisplay:10.37,2013-07-14 22:07:00,
2013-07-15 08:12:00,55.5,51.1,30.14,ENE,60,0.0,0.0,85,0.00,CLR,,0.00,WeatherDisplay:10.37,2013-07-14 22:12:00,
2013-07-15 08:17:00,55.6,51.1,30.15,NE,56,0.0,1.0,85,0.00,CLR,,0.00,WeatherDisplay:10.37,2013-07-14 22:17:00,
2013-07-15 08:22:00,55.6,51.1,30.14,NE,38,0.0,0.0,85,0.00,CLR,,0.00,WeatherDisplay:10.37,2013-07-14 22:22:00,
2013-07-15 08:27:00,55.6,51.1,30.15,NNE,27,0.0,2.0,85,0.00,CLR,,0.00,WeatherDisplay:10.37,2013-07-14 22:27:00,
2013-07-15 08:32:00,55.6,51.1,30.15,NNE,31,0.0,1.0,85,0.00,CLR,,0.00,WeatherDisplay:10.37,2013-07-14 22:32:00,
2013-07-15 08:37:00,55.6,51.1,30.15,NNE,30,0.0,0.0,85,0.00,CLR,,0.00,WeatherDisplay:10.37,2013-07-14 22:37:00,
2013-07-15 08:42:00,55.6,51.1,30.15,NE,41,0.0,0.0,85,0.00,CLR,,0.00,WeatherDisplay:10.37,2013-07-14 22:42:00,
2013-07-15 08:47:00,55.7,51.2,30.15,North,10,0.0,0.0,85,0.00,CLR,,0.00,WeatherDisplay:10.37,2013-07-14 22:47:00,
2013-07-15 08:52:00,55.8,51.3,30.15,North,353,0.0,0.0,85,0.00,CLR,,0.00,WeatherDisplay:10.37,2013-07-14 22:52:00,
2013-07-15 08:57:00,55.9,51.5,30.15,NNE,28,0.0,0.0,85,0.00,CLR,,0.00,WeatherDisplay:10.37,2013-07-14 22:57:00,
2013-07-15 09:02:00,55.9,51.5,30.15,NE,37,0.0,0.0,85,0.00,CLR,,0.00,WeatherDisplay:10.37,2013-07-14 23:02:00,
2013-07-15 09:07:00,56.0,51.6,30.15,NNE,31,0.0,0.0,85,0.00,CLR,,0.00,WeatherDisplay:10.37,2013-07-14 23:07:00,
2013-07-15 09:12:00,56.1,51.7,30.15,NNE,33,0.0,0.0,85,0.00,CLR,,0.00,WeatherDisplay:10.37,2013-07-14 23:12:00,
2013-07-15 09:17:00,56.3,51.8,30.15,NE,40,0.0,0.0,85,0.00,CLR,,0.00,WeatherDisplay:10.37,2013-07-14 23:17:00,
2013-07-15 09:22:00,56.5,52.0,30.15,NE,39,0.0,0.0,85,0.00,CLR,,0.00,WeatherDisplay:10.37,2013-07-14 23:22:00,
2013-07-15 09:27:00,56.6,52.1,30.15,NNE,33,0.0,0.0,85,0.00,CLR,,0.00,WeatherDisplay:10.37,2013-07-14 23:27:00,
2013-07-15 09:32:00,56.8,52.4,30.15,NNE,29,0.0,2.0,85,0.00,CLR,,0.00,WeatherDisplay:10.37,2013-07-14 23:32:00,
2013-07-15 09:37:00,57.0,52.9,30.15,NE,34,0.0,0.0,86,0.00,CLR,,0.00,WeatherDisplay:10.37,2013-07-14 23:37:00,
2013-07-15 09:42:00,57.0,52.9,30.15,NE,34,0.0,1.0,86,0.00,CLR,,0.00,WeatherDisplay:10.37,2013-07-14 23:42:00,
2013-07-15 09:47:00,57.1,52.9,30.15,NE,36,0.0,0.0,86,0.00,CLR,,0.00,WeatherDisplay:10.37,2013-07-14 23:47:00,
2013-07-15 09:52:00,57.4,53.2,30.15,NE,44,0.0,3.0,86,0.00,CLR,,0.00,WeatherDisplay:10.37,2013-07-14 23:52:00,
2013-07-15 09:57:00,57.4,53.2,30.15,NE,41,0.0,0.0,86,0.00,CLR,,0.00,WeatherDisplay:10.37,2013-07-14 23:57:00,
2013-07-15 10:02:00,57.7,53.3,30.15,NNE,20,0.0,0.0,85,0.00,CLR,,0.00,WeatherDisplay:10.37,2013-07-15 00:02:00,
2013-07-15 10:07:00,57.7,53.3,30.15,NNE,19,0.0,0.0,85,0.00,CLR,,0.00,WeatherDisplay:10.37,2013-07-15 00:07:00,
2013-07-15 10:12:00,57.9,53.4,30.14,NNE,15,0.0,0.0,85,0.00,CLR,,0.00,WeatherDisplay:10.37,2013-07-15 00:12:00,
2013-07-15 10:17:00,58.1,53.6,30.15,North,356,0.0,3.0,85,0.00,CLR,,0.00,WeatherDisplay:10.37,2013-07-15 00:17:00,
2013-07-15 10:22:00,58.3,53.8,30.15,North,358,0.0,2.0,85,0.00,CLR,,0.00,WeatherDisplay:10.37,2013-07-15 00:22:00,
2013-07-15 10:27:00,58.6,54.1,30.15,North,11,0.0,3.0,85,0.00,CLR,,0.00,WeatherDisplay:10.37,2013-07-15 00:27:00,
2013-07-15 10:32:00,58.7,53.9,30.15,North,11,1.0,2.0,84,0.00,CLR,,0.00,WeatherDisplay:10.37,2013-07-15 00:32:00,
2013-07-15 10:37:00,58.8,54.0,30.15,NNE,19,1.0,3.0,84,0.00,CLR,,0.00,WeatherDisplay:10.37,2013-07-15 00:37:00,
2013-07-15 10:42:00,59.1,54.3,30.14,NNE,31,1.0,3.0,84,0.00,CLR,,0.00,WeatherDisplay:10.37,2013-07-15 00:42:00,
2013-07-15 10:47:00,59.2,54.4,30.14,NNE,31,0.0,0.0,84,0.00,CLR,,0.00,WeatherDisplay:10.37,2013-07-15 00:47:00,
2013-07-15 10:52:00,59.4,54.5,30.14,NNE,32,1.0,2.0,84,0.00,CLR,,0.00,WeatherDisplay:10.37,2013-07-15 00:52:00,
2013-07-15 10:57:00,59.5,54.7,30.14,NE,35,0.0,2.0,84,0.00,CLR,,0.00,WeatherDisplay:10.37,2013-07-15 00:57:00,
2013-07-15 11:02:00,59.6,54.8,30.14,NE,35,1.0,3.0,84,0.00,CLR,,0.00,WeatherDisplay:10.37,2013-07-15 01:02:00,
2013-07-15 11:07:00,59.9,54.7,30.13,NNE,23,0.0,3.0,83,0.00,CLR,,0.00,WeatherDisplay:10.37,2013-07-15 01:07:00,
2013-07-15 11:12:00,60.1,54.9,30.13,NNE,22,0.0,4.0,83,0.00,CLR,,0.00,WeatherDisplay:10.37,2013-07-15 01:12:00,
2013-07-15 11:17:00,60.1,54.6,30.13,NNE,27,0.0,4.0,82,0.00,CLR,,0.00,WeatherDisplay:10.37,2013-07-15 01:17:00,
2013-07-15 11:22:00,60.4,54.9,30.13,NNE,32,2.0,5.0,82,0.00,CLR,,0.00,WeatherDisplay:10.37,2013-07-15 01:22:00,
2013-07-15 11:27:00,60.4,54.9,30.13,NNE,17,0.0,2.0,82,0.00,CLR,,0.00,WeatherDisplay:10.37,2013-07-15 01:27:00,
2013-07-15 11:32:00,60.6,54.8,30.13,NNE,13,0.0,3.0,81,0.00,CLR,,0.00,WeatherDisplay:10.37,2013-07-15 01:32:00,
2013-07-15 11:37:00,60.6,54.8,30.13,NNE,19,0.0,5.0,81,0.00,CLR,,0.00,WeatherDisplay:10.37,2013-07-15 01:37:00,
2013-07-15 11:42:00,60.7,54.8,30.12,NNE,17,1.0,5.0,81,0.00,CLR,,0.00,WeatherDisplay:10.37,2013-07-15 01:42:00,
2013-07-15 11:47:00,61.0,54.8,30.12,NNE,24,0.0,4.0,80,0.00,CLR,,0.00,WeatherDisplay:10.37,2013-07-15 01:47:00,
2013-07-15 11:52:00,61.2,55.0,30.11,NNE,24,1.0,5.0,80,0.00,CLR,,0.00,WeatherDisplay:10.37,2013-07-15 01:52:00,
2013-07-15 11:57:00,61.3,54.8,30.11,North,11,1.0,5.0,79,0.00,CLR,,0.00,WeatherDisplay:10.37,2013-07-15 01:57:00,
2013-07-15 12:02:00,61.5,54.9,30.11,North,1,0.0,3.0,79,0.00,CLR,,0.00,WeatherDisplay:10.37,2013-07-15 02:02:00,
2013-07-15 12:07:00,61.7,55.1,30.11,NNE,12,0.0,3.0,79,0.00,CLR,,0.00,WeatherDisplay:10.37,2013-07-15 02:07:00,
2013-07-15 12:12:00,61.7,54.8,30.10,North,2,0.0,2.0,78,0.00,CLR,,0.00,WeatherDisplay:10.37,2013-07-15 02:12:00,
2013-07-15 12:17:00,61.9,54.9,30.10,North,350,0.0,2.0,78,0.00,CLR,,0.00,WeatherDisplay:10.37,2013-07-15 02:17:00,
2013-07-15 12:22:00,62.2,55.3,30.10,NNW,345,0.0,0.0,78,0.00,CLR,,0.00,WeatherDisplay:10.37,2013-07-15 02:22:00,
2013-07-15 12:27:00,62.4,55.1,30.09,NNW,336,0.0,0.0,77,0.00,CLR,,0.00,WeatherDisplay:10.37,2013-07-15 02:27:00,
2013-07-15 12:32:00,62.4,55.1,30.09,NNW,333,0.0,0.0,77,0.00,CLR,,0.00,WeatherDisplay:10.37,2013-07-15 02:32:00,
2013-07-15 12:37:00,62.4,55.1,30.09,NNW,335,0.0,0.0,77,0.00,CLR,,0.00,WeatherDisplay:10.37,2013-07-15 02:37:00,
2013-07-15 12:42:00,62.4,55.1,30.09,NNW,337,0.0,0.0,77,0.00,CLR,,0.00,WeatherDisplay:10.37,2013-07-15 02:42:00,
2013-07-15 12:47:00,62.4,55.1,30.09,North,354,0.0,0.0,77,0.00,CLR,,0.00,WeatherDisplay:10.37,2013-07-15 02:47:00,
2013-07-15 12:52:00,62.6,55.3,30.08,North,350,0.0,0.0,77,0.00,CLR,,0.00,WeatherDisplay:10.37,2013-07-15 02:52:00,
2013-07-15 12:57:00,62.9,55.6,30.08,NNW,334,0.0,0.0,77,0.00,CLR,,0.00,WeatherDisplay:10.37,2013-07-15 02:57:00,
2013-07-15 13:02:00,63.2,55.5,30.08,NNW,341,0.0,3.0,76,0.00,CLR,,0.00,WeatherDisplay:10.37,2013-07-15 03:02:00,
2013-07-15 13:07:00,63.6,55.9,30.08,NNW,339,0.0,3.0,76,0.00,CLR,,0.00,WeatherDisplay:10.37,2013-07-15 03:07:00,
2013-07-15 13:12:00,64.0,56.3,30.08,NNW,338,0.0,0.0,76,0.00,CLR,,0.00,WeatherDisplay:10.37,2013-07-15 03:12:00,
2013-07-15 13:17:00,64.2,56.1,30.08,North,351,0.0,0.0,75,0.00,CLR,,0.00,WeatherDisplay:10.37,2013-07-15 03:17:00,
2013-07-15 13:22:00,64.2,56.1,30.08,North,349,0.0,0.0,75,0.00,CLR,,0.00,WeatherDisplay:10.37,2013-07-15 03:22:00,
2013-07-15 13:27:00,64.2,56.1,30.08,North,349,0.0,0.0,75,0.00,CLR,,0.00,WeatherDisplay:10.37,2013-07-15 03:27:00,
2013-07-15 13:32:00,64.5,56.4,30.08,NNW,339,0.0,0.0,75,0.00,CLR,,0.00,WeatherDisplay:10.37,2013-07-15 03:32:00,
2013-07-15 13:37:00,64.6,56.1,30.08,NNW,341,0.0,0.0,74,0.00,CLR,,0.00,WeatherDisplay:10.37,2013-07-15 03:37:00,
2013-07-15 13:42:00,64.7,56.2,30.08,North,352,0.0,0.0,74,0.00,CLR,,0.00,WeatherDisplay:10.37,2013-07-15 03:42:00,
2013-07-15 13:47:00,64.8,56.0,30.07,North,353,0.0,0.0,73,0.00,CLR,,0.00,WeatherDisplay:10.37,2013-07-15 03:47:00,
2013-07-15 13:52:00,64.9,56.4,30.07,North,352,0.0,0.0,74,0.00,CLR,,0.00,WeatherDisplay:10.37,2013-07-15 03:52:00,
2013-07-15 13:57:00,64.8,55.9,30.07,North,353,0.0,0.0,73,0.00,CLR,,0.00,WeatherDisplay:10.37,2013-07-15 03:57:00,
2013-07-15 14:02:00,64.8,56.0,30.07,North,355,0.0,2.0,73,0.00,CLR,,0.00,WeatherDisplay:10.37,2013-07-15 04:02:00,
2013-07-15 14:07:00,64.8,55.9,30.07,NNE,12,0.0,2.0,73,0.00,CLR,,0.00,WeatherDisplay:10.37,2013-07-15 04:07:00,
2013-07-15 14:12:00,64.8,55.9,30.07,North,360,0.0,0.0,73,0.00,CLR,,0.00,WeatherDisplay:10.37,2013-07-15 04:12:00,
2013-07-15 14:16:00,64.7,55.9,30.07,North,9,0.0,2.0,73,0.00,CLR,,0.00,WeatherDisplay:10.37,2013-07-15 04:16:00,
2013-07-15 14:22:00,64.6,55.8,30.07,NNE,28,0.0,2.0,73,0.00,CLR,,0.00,WeatherDisplay:10.37,2013-07-15 04:22:00,
2013-07-15 14:27:00,64.6,55.7,30.07,NNE,28,0.0,0.0,73,0.00,CLR,,0.00,WeatherDisplay:10.37,2013-07-15 04:27:00,
2013-07-15 14:32:00,64.2,55.4,30.07,NNE,13,0.0,0.0,73,0.00,CLR,,0.00,WeatherDisplay:10.37,2013-07-15 04:32:00,
2013-07-15 14:37:00,64.2,55.4,30.07,North,1,0.0,0.0,73,0.00,CLR,,0.00,WeatherDisplay:10.37,2013-07-15 04:37:00,
2013-07-15 14:42:00,64.2,55.4,30.07,NNE,13,0.0,1.0,73,0.00,CLR,,0.00,WeatherDisplay:10.37,2013-07-15 04:42:00,
2013-07-15 14:47:00,64.2,55.4,30.07,North,11,0.0,2.0,73,0.00,CLR,,0.00,WeatherDisplay:10.37,2013-07-15 04:47:00,
2013-07-15 14:52:00,64.2,55.4,30.07,North,2,0.0,1.0,73,0.00,CLR,,0.00,WeatherDisplay:10.37,2013-07-15 04:52:00,
2013-07-15 14:56:00,64.2,55.3,30.07,North,0,0.0,0.0,73,0.00,CLR,,0.00,WeatherDisplay:10.37,2013-07-15 04:56:00,
2013-07-15 15:02:00,64.1,55.3,30.07,North,353,0.0,0.0,73,0.00,CLR,,0.00,WeatherDisplay:10.37,2013-07-15 05:02:00,
2013-07-15 15:07:00,64.2,55.4,30.08,North,6,0.0,2.0,73,0.00,CLR,,0.00,WeatherDisplay:10.37,2013-07-15 05:07:00,
2013-07-15 15:12:00,64.0,55.2,30.07,NNE,14,0.0,3.0,73,0.00,CLR,,0.00,WeatherDisplay:10.37,2013-07-15 05:12:00,
2013-07-15 15:17:00,64.0,55.6,30.07,NNE,27,0.0,4.0,74,0.00,CLR,,0.00,WeatherDisplay:10.37,2013-07-15 05:17:00,
2013-07-15 15:22:00,64.0,55.6,30.07,NNE,14,0.0,3.0,74,0.00,CLR,,0.00,WeatherDisplay:10.37,2013-07-15 05:22:00,
2013-07-15 15:27:00,64.0,55.6,30.08,North,7,0.0,0.0,74,0.00,CLR,,0.00,WeatherDisplay:10.37,2013-07-15 05:27:00,
2013-07-15 15:32:00,64.0,55.6,30.07,NNE,24,0.0,1.0,74,0.00,CLR,,0.00,WeatherDisplay:10.37,2013-07-15 05:32:00,
2013-07-15 15:36:00,64.0,56.0,30.07,NNE,28,0.0,2.0,75,0.00,CLR,,0.00,WeatherDisplay:10.37,2013-07-15 05:36:00,
2013-07-15 15:42:00,64.0,56.0,30.08,NNE,21,0.0,2.0,75,0.00,CLR,,0.00,WeatherDisplay:10.37,2013-07-15 05:42:00,
2013-07-15 15:46:00,63.8,55.8,30.08,NNE,22,0.0,2.0,75,0.00,CLR,,0.00,WeatherDisplay:10.37,2013-07-15 05:46:00,
2013-07-15 15:52:00,63.7,55.6,30.08,NNE,21,0.0,0.0,75,0.00,CLR,,0.00,WeatherDisplay:10.37,2013-07-15 05:52:00,
2013-07-15 15:56:00,63.7,55.6,30.08,NNE,28,0.0,0.0,75,0.00,CLR,,0.00,WeatherDisplay:10.37,2013-07-15 05:56:00,
2013-07-15 16:01:00,63.7,55.6,30.07,NE,34,0.0,0.0,75,0.00,CLR,,0.00,WeatherDisplay:10.37,2013-07-15 06:01:00,
2013-07-15 16:06:00,63.6,55.6,30.08,NE,38,0.0,1.0,75,0.00,CLR,,0.00,WeatherDisplay:10.37,2013-07-15 06:06:00,
2013-07-15 16:12:00,63.5,55.4,30.08,NNE,30,0.0,0.0,75,0.00,CLR,,0.00,WeatherDisplay:10.37,2013-07-15 06:12:00,
2013-07-15 16:16:00,63.5,55.4,30.08,NNE,23,0.0,0.0,75,0.00,CLR,,0.00,WeatherDisplay:10.37,2013-07-15 06:16:00,
2013-07-15 16:22:00,63.3,55.3,30.08,NE,52,0.0,0.0,75,0.00,CLR,,0.00,WeatherDisplay:10.37,2013-07-15 06:22:00,
2013-07-15 16:27:00,63.1,55.1,30.08,ENE,72,0.0,0.0,75,0.00,CLR,,0.00,WeatherDisplay:10.37,2013-07-15 06:27:00,
2013-07-15 16:32:00,63.1,55.4,30.08,ENE,69,0.0,0.0,76,0.00,CLR,,0.00,WeatherDisplay:10.37,2013-07-15 06:32:00,
2013-07-15 16:36:00,63.0,55.3,30.08,ENE,68,0.0,0.0,76,0.00,CLR,,0.00,WeatherDisplay:10.37,2013-07-15 06:36:00,
2013-07-15 16:42:00,62.9,55.2,30.08,ENE,68,0.0,0.0,76,0.00,CLR,,0.00,WeatherDisplay:10.37,2013-07-15 06:42:00,
2013-07-15 16:46:00,62.7,55.4,30.08,East,89,0.0,0.0,77,0.00,CLR,,0.00,WeatherDisplay:10.37,2013-07-15 06:46:00,
2013-07-15 16:52:00,62.6,55.3,30.08,SE,146,0.0,0.0,77,0.00,CLR,,0.00,WeatherDisplay:10.37,2013-07-15 06:52:00,
2013-07-15 16:56:00,62.4,55.1,30.08,South,191,0.0,0.0,77,0.00,CLR,,0.00,WeatherDisplay:10.37,2013-07-15 06:56:00,
2013-07-15 17:01:00,62.2,54.9,30.08,SSW,210,0.0,0.0,77,0.00,CLR,,0.00,WeatherDisplay:10.37,2013-07-15 07:01:00,
2013-07-15 17:06:00,62.1,54.8,30.09,SW,227,0.0,0.0,77,0.00,CLR,,0.00,WeatherDisplay:10.37,2013-07-15 07:06:00,
2013-07-15 17:12:00,61.9,54.9,30.09,WSW,239,0.0,0.0,78,0.00,CLR,,0.00,WeatherDisplay:10.37,2013-07-15 07:12:00,
2013-07-15 17:17:00,61.7,54.8,30.08,SW,229,0.0,0.0,78,0.00,CLR,,0.00,WeatherDisplay:10.37,2013-07-15 07:17:00,
2013-07-15 17:22:00,61.5,54.6,30.08,SW,226,0.0,0.0,78,0.00,CLR,,0.00,WeatherDisplay:10.37,2013-07-15 07:22:00,
2013-07-15 17:27:00,61.5,54.6,30.08,SSW,211,0.0,0.0,78,0.00,CLR,,0.00,WeatherDisplay:10.37,2013-07-15 07:27:00,
2013-07-15 17:32:00,61.5,54.9,30.09,SSW,202,0.0,0.0,79,0.00,CLR,,0.00,WeatherDisplay:10.37,2013-07-15 07:32:00,
2013-07-15 17:37:00,61.3,54.8,30.08,SSW,202,0.0,0.0,79,0.00,CLR,,0.00,WeatherDisplay:10.37,2013-07-15 07:37:00,
2013-07-15 17:42:00,61.2,54.6,30.09,SSW,196,0.0,0.0,79,0.00,CLR,,0.00,WeatherDisplay:10.37,2013-07-15 07:42:00,
2013-07-15 17:47:00,61.0,54.5,30.09,SSW,196,0.0,0.0,79,0.00,CLR,,0.00,WeatherDisplay:10.37,2013-07-15 07:47:00,
2013-07-15 17:52:00,61.0,54.4,30.09,SSW,201,0.0,0.0,79,0.00,CLR,,0.00,WeatherDisplay:10.37,2013-07-15 07:52:00,
2013-07-15 17:57:00,61.0,54.4,30.09,SSW,203,0.0,0.0,79,0.00,CLR,,0.00,WeatherDisplay:10.37,2013-07-15 07:57:00,
2013-07-15 18:02:00,60.8,54.2,30.09,SW,215,0.0,0.0,79,0.00,CLR,,0.00,WeatherDisplay:10.37,2013-07-15 08:02:00,
2013-07-15 18:07:00,60.6,54.1,30.09,SW,221,0.0,0.0,79,0.00,CLR,,0.00,WeatherDisplay:10.37,2013-07-15 08:07:00,
2013-07-15 18:12:00,60.6,54.1,30.09,SSW,207,0.0,0.0,79,0.00,CLR,,0.00,WeatherDisplay:10.37,2013-07-15 08:12:00,
2013-07-15 18:17:00,60.6,54.4,30.09,SW,231,0.0,0.0,80,0.00,CLR,,0.00,WeatherDisplay:10.37,2013-07-15 08:17:00,
2013-07-15 18:22:00,60.6,54.4,30.09,WNW,294,0.0,0.0,80,0.00,CLR,,0.00,WeatherDisplay:10.37,2013-07-15 08:22:00,
2013-07-15 18:27:00,60.6,54.4,30.10,West,268,0.0,0.0,80,0.00,CLR,,0.00,WeatherDisplay:10.37,2013-07-15 08:27:00,
2013-07-15 18:32:00,60.6,54.4,30.09,SSW,209,0.0,0.0,80,0.00,CLR,,0.00,WeatherDisplay:10.37,2013-07-15 08:32:00,
2013-07-15 18:37:00,60.6,54.4,30.09,SSW,210,0.0,0.0,80,0.00,CLR,,0.00,WeatherDisplay:10.37,2013-07-15 08:37:00,
2013-07-15 18:42:00,60.6,54.4,30.09,WSW,239,0.0,0.0,80,0.00,CLR,,0.00,WeatherDisplay:10.37,2013-07-15 08:42:00,
2013-07-15 18:47:00,60.6,54.4,30.10,West,260,0.0,0.0,80,0.00,CLR,,0.00,WeatherDisplay:10.37,2013-07-15 08:47:00,
2013-07-15 18:52:00,60.6,54.4,30.09,West,268,0.0,0.0,80,0.00,CLR,,0.00,WeatherDisplay:10.37,2013-07-15 08:52:00,
2013-07-15 18:57:00,60.6,54.4,30.09,SW,234,0.0,0.0,80,0.00,CLR,,0.00,WeatherDisplay:10.37,2013-07-15 08:57:00,
2013-07-15 19:02:00,60.6,54.4,30.09,SSW,203,0.0,0.0,80,0.00,CLR,,0.00,WeatherDisplay:10.37,2013-07-15 09:02:00,
2013-07-15 19:07:00,60.6,54.4,30.09,SW,230,0.0,0.0,80,0.00,CLR,,0.00,WeatherDisplay:10.37,2013-07-15 09:07:00,
2013-07-15 19:12:00,60.6,54.4,30.09,West,276,0.0,0.0,80,0.00,CLR,,0.00,WeatherDisplay:10.37,2013-07-15 09:12:00,
2013-07-15 19:17:00,60.6,54.4,30.10,NNW,335,0.0,0.0,80,0.00,CLR,,0.00,WeatherDisplay:10.37,2013-07-15 09:17:00,
2013-07-15 19:22:00,60.6,54.4,30.09,North,359,0.0,0.0,80,0.00,CLR,,0.00,WeatherDisplay:10.37,2013-07-15 09:22:00,
2013-07-15 19:26:00,60.6,54.8,30.09,NNW,348,0.0,0.0,81,0.00,CLR,,0.00,WeatherDisplay:10.37,2013-07-15 09:26:00,
2013-07-15 19:32:00,60.6,54.4,30.10,NW,310,0.0,0.0,80,0.00,CLR,,0.00,WeatherDisplay:10.37,2013-07-15 09:32:00,
2013-07-15 19:37:00,60.6,54.7,30.10,WNW,284,0.0,0.0,81,0.00,CLR,,0.00,WeatherDisplay:10.37,2013-07-15 09:37:00,
2013-07-15 19:42:00,60.6,54.7,30.10,WNW,287,0.0,0.0,81,0.00,CLR,,0.00,WeatherDisplay:10.37,2013-07-15 09:42:00,
2013-07-15 19:47:00,60.5,54.6,30.10,North,5,0.0,0.0,81,0.00,CLR,,0.00,WeatherDisplay:10.37,2013-07-15 09:47:00,
2013-07-15 19:52:00,60.4,54.6,30.10,NE,50,0.0,0.0,81,0.00,CLR,,0.00,WeatherDisplay:10.37,2013-07-15 09:52:00,
2013-07-15 19:57:00,60.4,54.6,30.10,SSW,203,0.0,0.0,81,0.00,CLR,,0.00,WeatherDisplay:10.37,2013-07-15 09:57:00,
2013-07-15 20:01:00,60.4,54.6,30.10,SSW,205,0.0,0.0,81,0.00,CLR,,0.00,WeatherDisplay:10.37,2013-07-15 10:01:00,
2013-07-15 20:07:00,60.4,54.6,30.10,South,191,0.0,0.0,81,0.00,CLR,,0.00,WeatherDisplay:10.37,2013-07-15 10:07:00,
2013-07-15 20:12:00,60.4,54.6,30.09,SSW,194,0.0,0.0,81,0.00,CLR,,0.00,WeatherDisplay:10.37,2013-07-15 10:12:00,
2013-07-15 20:16:00,60.3,54.5,30.10,SSW,199,0.0,0.0,81,0.00,CLR,,0.00,WeatherDisplay:10.37,2013-07-15 10:16:00,
2013-07-15 20:22:00,60.1,54.2,30.10,SSW,202,0.0,0.0,81,0.00,CLR,,0.00,WeatherDisplay:10.37,2013-07-15 10:22:00,
2013-07-15 20:27:00,60.1,54.6,30.10,SSW,205,0.0,0.0,82,0.00,CLR,,0.00,WeatherDisplay:10.37,2013-07-15 10:27:00,
2013-07-15 20:32:00,60.1,54.6,30.10,SSW,212,0.0,0.0,82,0.00,CLR,,0.00,WeatherDisplay:10.37,2013-07-15 10:32:00,
2013-07-15 20:37:00,60.1,54.6,30.10,SW,221,0.0,0.0,82,0.00,CLR,,0.00,WeatherDisplay:10.37,2013-07-15 10:37:00,
2013-07-15 20:42:00,60.1,54.6,30.10,SW,228,0.0,0.0,82,0.00,CLR,,0.00,WeatherDisplay:10.37,2013-07-15 10:42:00,
2013-07-15 20:46:00,60.1,54.6,30.09,SW,228,0.0,0.0,82,0.00,CLR,,0.00,WeatherDisplay:10.37,2013-07-15 10:46:00,
2013-07-15 20:52:00,60.1,54.6,30.10,SW,231,0.0,0.0,82,0.00,CLR,,0.00,WeatherDisplay:10.37,2013-07-15 10:52:00,
2013-07-15 20:57:00,59.9,54.4,30.10,SW,233,0.0,0.0,82,0.00,CLR,,0.00,WeatherDisplay:10.37,2013-07-15 10:57:00,
2013-07-15 21:02:00,59.9,54.4,30.10,SW,230,0.0,0.0,82,0.00,CLR,,0.00,WeatherDisplay:10.37,2013-07-15 11:02:00,
2013-07-15 21:07:00,59.9,54.4,30.09,SW,227,0.0,0.0,82,0.00,CLR,,0.00,WeatherDisplay:10.37,2013-07-15 11:07:00,
2013-07-15 21:12:00,59.9,54.4,30.09,SW,228,0.0,0.0,82,0.00,CLR,,0.00,WeatherDisplay:10.37,2013-07-15 11:12:00,
2013-07-15 21:17:00,59.8,54.3,30.10,West,259,0.0,1.0,82,0.00,CLR,,0.00,WeatherDisplay:10.37,2013-07-15 11:17:00,
2013-07-15 21:22:00,59.7,54.2,30.10,NNW,345,0.0,0.0,82,0.00,CLR,,0.00,WeatherDisplay:10.37,2013-07-15 11:22:00,
2013-07-15 21:27:00,59.7,54.2,30.10,West,260,0.0,0.0,82,0.00,CLR,,0.00,WeatherDisplay:10.37,2013-07-15 11:27:00,
2013-07-15 21:31:00,59.5,54.0,30.10,WSW,252,0.0,0.0,82,0.00,CLR,,0.00,WeatherDisplay:10.37,2013-07-15 11:31:00,
2013-07-15 21:36:00,59.5,54.4,30.10,WSW,244,0.0,0.0,83,0.00,CLR,,0.00,WeatherDisplay:10.37,2013-07-15 11:36:00,
2013-07-15 21:42:00,59.5,54.4,30.10,South,172,0.0,0.0,83,0.00,CLR,,0.00,WeatherDisplay:10.37,2013-07-15 11:42:00,
2013-07-15 21:46:00,59.5,54.4,30.10,SSW,195,0.0,0.0,83,0.00,CLR,,0.00,WeatherDisplay:10.37,2013-07-15 11:46:00,
2013-07-15 21:51:00,59.5,54.4,30.10,SW,220,0.0,0.0,83,0.00,CLR,,0.00,WeatherDisplay:10.37,2013-07-15 11:51:00,
2013-07-15 21:56:00,59.5,54.4,30.10,WSW,239,0.0,0.0,83,0.00,CLR,,0.00,WeatherDisplay:10.37,2013-07-15 11:56:00,
2013-07-15 22:02:00,59.5,54.4,30.10,WSW,251,0.0,0.0,83,0.00,CLR,,0.00,WeatherDisplay:10.37,2013-07-15 12:02:00,
2013-07-15 22:07:00,59.7,54.5,30.10,WSW,251,0.0,0.0,83,0.00,CLR,,0.00,WeatherDisplay:10.37,2013-07-15 12:07:00,
2013-07-15 22:12:00,59.7,54.5,30.10,WSW,241,0.0,0.0,83,0.00,CLR,,0.00,WeatherDisplay:10.37,2013-07-15 12:12:00,
2013-07-15 22:16:00,59.7,54.2,30.09,SW,236,0.0,0.0,82,0.00,CLR,,0.00,WeatherDisplay:10.37,2013-07-15 12:16:00,
2013-07-15 22:21:00,59.7,54.2,30.10,SW,230,0.0,0.0,82,0.00,CLR,,0.00,WeatherDisplay:10.37,2013-07-15 12:21:00,
2013-07-15 22:26:00,59.7,54.2,30.10,SW,225,0.0,0.0,82,0.00,CLR,,0.00,WeatherDisplay:10.37,2013-07-15 12:26:00,
2013-07-15 22:31:00,59.7,54.2,30.10,SW,225,0.0,0.0,82,0.00,CLR,,0.00,WeatherDisplay:10.37,2013-07-15 12:31:00,
2013-07-15 22:36:00,59.7,54.2,30.10,SW,231,0.0,0.0,82,0.00,CLR,,0.00,WeatherDisplay:10.37,2013-07-15 12:36:00,
2013-07-15 22:41:00,59.7,54.2,30.10,SW,229,0.0,0.0,82,0.00,CLR,,0.00,WeatherDisplay:10.37,2013-07-15 12:41:00,
2013-07-15 22:46:00,59.7,54.2,30.10,SW,228,0.0,0.0,82,0.00,CLR,,0.00,WeatherDisplay:10.37,2013-07-15 12:46:00,
2013-07-15 22:51:00,59.7,54.2,30.10,SW,228,0.0,0.0,82,0.00,CLR,,0.00,WeatherDisplay:10.37,2013-07-15 12:51:00,
2013-07-15 22:56:00,59.5,54.0,30.10,SW,230,0.0,0.0,82,0.00,CLR,,0.00,WeatherDisplay:10.37,2013-07-15 12:56:00,
2013-07-15 23:02:00,59.5,53.7,30.10,SW,234,0.0,0.0,81,0.00,CLR,,0.00,WeatherDisplay:10.37,2013-07-15 13:02:00,
2013-07-15 23:06:00,59.5,53.7,30.10,WSW,244,0.0,0.0,81,0.00,CLR,,0.00,WeatherDisplay:10.37,2013-07-15 13:06:00,
2013-07-15 23:12:00,59.5,53.7,30.09,WSW,249,0.0,0.0,81,0.00,CLR,,0.00,WeatherDisplay:10.37,2013-07-15 13:12:00,
2013-07-15 23:17:00,59.5,53.7,30.09,SW,236,0.0,0.0,81,0.00,CLR,,0.00,WeatherDisplay:10.37,2013-07-15 13:17:00,
2013-07-15 23:22:00,59.5,53.7,30.10,SW,233,0.0,0.0,81,0.00,CLR,,0.00,WeatherDisplay:10.37,2013-07-15 13:22:00,
2013-07-15 23:26:00,59.5,53.7,30.10,WSW,240,0.0,0.0,81,0.00,CLR,,0.00,WeatherDisplay:10.37,2013-07-15 13:26:00,
2013-07-15 23:31:00,59.5,53.7,30.10,WSW,252,0.0,0.0,81,0.00,CLR,,0.00,WeatherDisplay:10.37,2013-07-15 13:31:00,
2013-07-15 23:36:00,59.5,53.7,30.10,West,271,0.0,0.0,81,0.00,CLR,,0.00,WeatherDisplay:10.37,2013-07-15 13:36:00,
2013-07-15 23:41:00,59.5,53.7,30.09,West,275,0.0,0.0,81,0.00,CLR,,0.00,WeatherDisplay:10.37,2013-07-15 13:41:00,
2013-07-15 23:46:00,59.4,53.5,30.10,West,272,0.0,0.0,81,0.00,CLR,,0.00,WeatherDisplay:10.37,2013-07-15 13:46:00,
2013-07-15 23:51:00,59.2,53.4,30.10,West,264,0.0,0.0,81,0.00,CLR,,0.00,WeatherDisplay:10.37,2013-07-15 13:51:00,
2013-07-15 23:56:00,59.2,53.4,30.09,WSW,239,0.0,0.0,81,0.00,CLR,,0.00,WeatherDisplay:10.37,2013-07-15 13:56:00,